User: anonymous   Login
Location: Unspecified
(0.0000°N, 0.0000°E)
Time: 07:48:54
(UTC+00:00)
Language:

DX 1 - Orbit

View from above orbital plane
View from above orbital plane
View from above satellite
View from above satellite

Ground track
Ground track

The orbit data is extracted from the following two-line orbital elements,

1 40071U 14037C   21134.88392176 -.00000050  00000-0  11340-5 0  9992
2 40071  98.4537 337.6864 0009191 147.8115 212.3662 14.81490239370322
Epoch (UTC): 14 May 2021 21:12:50
Eccentricity: 0.0009191
inclination: 98.4537°
perigee height: 618 km
apogee height: 631 km
right ascension of ascending node: 337.6864°
argument of perigee: 147.8115°
revolutions per day: 14.81490239
mean anomaly at epoch: 212.3662°
orbit number at epoch: 37032

The dashed part of the orbit path shows where the satellite is in the earth's shadow,  

DLR